Terminal Aerodrome Forecast
Issued by NWS

Home | Current Version | Previous Version | Graphics & Text | Print | Product List | Glossary On
Versions: 1 2 3 4 5 6 7 8 9 10 11 12 13 14 15 16 17 18 19 20 21 22 23 24 25 26 27 28 29 30 31 32 33 34 35
000
FTUS43 KLOT 291647 AAC
TAFORD
TAF AMD
KORD 291647Z 2917/3018 16006KT P6SM VCSH BKN040 BKN080
      TEMPO 2917/2919 4SM TSRA BR BKN040CB
     FM292000 16004KT P6SM BKN040
     FM300000 07005KT 4SM BR OVC025
     FM300300 04004KT 2SM BR SCT007 OVC015
     FM301300 06004KT 6SM HZ SCT015=

USA.gov is the U.S. government's official web portal to all federal, state and local government web resources and services.